Regional Weather Roundup
Issued by NWS

Home | Current Version | Previous Version | Text Only | Print | Product List | Glossary Off
Versions: 1 2 3 4 5 6 7 8 9 10 11 12 13 14 15 16 17 18 19 20 21 22 23 24 25 26 27 28 29 30 31 32 33 34 35 36 37 38 39 40 41 42 43 44 45 46 47 48 49 50

000
ASUS43 KLSX 251507
RWRMO

WEATHER SUMMARY FOR MISSOURI
NATIONAL WEATHER SERVICE SPRINGFIELD MO
1000 AM CDT SAT APR 25 2015

NOTE: "FAIR" INDICATES FEW OR NO CLOUDS BELOW 12,000 FEET WITH NO
       SIGNIFICANT WEATHER AND/OR OBSTRUCTIONS TO VISIBILITY.
       CURRENT SKY AND/OR WEATHER CONDITIONS ARE NOT AVAILABLE FOR
       CHILLICOTHE AND FARMINGTON.

MOZ001>031-035>038-043-044-053-054-251600-
...NORTHERN AND WESTERN MISSOURI...

CITY           SKY/WX    TMP DP  RH WIND       PRES   REMARKS
KANSAS CTY INT PTSUNNY   60  56  86 CALM      29.45R
KANSAS C DTWN  CLOUDY    62  56  80 CALM      29.44R
LEE`S SUMMIT   PTSUNNY   61  57  87 VRB5      29.45R
ST JOSEPH      PTSUNNY   59  55  87 E9        29.45R
CHILLICOTHE      N/A     56  54  93 NE8       29.48R
KIRKSVILLE     CLOUDY    52  51  97 E14G21    29.51S FOG

$$
MOZ066>068-077>081-088>096-101>105-251600-
...SOUTHWEST MISSOURI...

CITY           SKY/WX    TMP DP  RH WIND       PRES   REMARKS
SPRINGFIELD    PTSUNNY   66  54  65 SW17G31   29.52R
JOPLIN         SUNNY     66  54  65 W23G30    29.54R

$$
MOZ032>034-039>042-045>050-055>058-069>072-251600-
...CENTRAL MISSOURI...

CITY           SKY/WX    TMP DP  RH WIND       PRES   REMARKS
COLUMBIA       CLOUDY    63  58  83 S8        29.47S
JEFFERSON CITY CLOUDY    65  57  75 S8        29.47S
ROLLA          CLOUDY    66  58  75 SW13      29.48F
SEDALIA        CLOUDY    64  57  78 S12G21    29.45S
WHITEMAN AFB   CLOUDY    63  59  87 SW13      29.43R
WARRENSBURG    CLOUDY    63  55  77 SW9       29.43S
OSAGE BEACH    CLOUDY    64  54  68 SW14G20   29.48S

$$
MOZ051-052-059>065-251600-
...EAST CENTRAL MISSOURI...

CITY           SKY/WX    TMP DP  RH WIND       PRES   REMARKS
ST LOUIS INTL  DRIZZLE   59  55  87 S8        29.55S FOG
SPIRIT OF STL  CLOUDY    59  55  87 SE6       29.53F
ST CHARLES     CLOUDY    58  55  90 SE9       29.54F FOG

$$
MOZ072>076-082>087-097>100-106>115-251600-
...SOUTH CENTRAL AND SOUTHEAST MISSOURI...

CITY           SKY/WX    TMP DP  RH WIND       PRES   REMARKS
CAPE GIRARDEAU CLOUDY    61  60  97 S13       29.60S
FARMINGTON     CLOUDY    59  57  94 S15       29.58F
POPLAR BLUFF   CLOUDY    65  60  84 SW17G28   29.57R
WEST PLAINS    MOSUNNY   67  57  70 SW16G22   29.56F

$$



USA.gov is the U.S. government's official web portal to all federal, state and local government web resources and services.